Regional Weather Roundup
Issued by NWS

Home | Current Version | Previous Version | Graphics & Text | Print | Product List | Glossary On
Versions: 1 2 3 4 5 6 7 8 9 10 11 12 13 14 15 16 17 18 19 20 21 22 23 24 25 26 27
000
ASUS45 KCYS 301510
RWRWY

WYOMING REGIONAL WEATHER ROUNDUP
NATIONAL WEATHER SERVICE CHEYENNE WY
900 AM MDT MON MAY 30 2016

NOTE:  "FAIR" INDICATES FEW OR NO CLOUDS BELOW 12,000 FEET
WITH NO SIGNIFICANT WEATHER AND/OR OBSTRUCTIONS TO VISIBILITY.

WYZ001-301600-
YELLOWSTONE NATIONAL PARK

CITY           SKY/WX    TMP DP  RH WIND       PRES   REMARKS
LK YELLOWSTONE   N/A     46  35  65 CALM      30.18S
W YELLOWSTONE  NOT AVBL

$$
WYZ002>013-054>058-071-098>099-301600-
NORTHERN WYOMING

CITY           SKY/WX    TMP DP  RH WIND       PRES   REMARKS
JACKSON        PTSUNNY   55  25  30 MISG      30.13S
CODY           FAIR      55  45  67 N13       30.04S
GREYBULL       PTSUNNY   62  42  47 NW17      29.98R
WORLAND        CLOUDY    61  43  51 NW9       30.01R
SHERIDAN       FAIR      55  47  74 W13       30.02R
BUFFALO        CLOUDY    54  44  69 N24G40    30.01R
GILLETTE       FAIR      58  45  62 N15       29.96R
HULETT         FAIR      64  43  45 W14G21    29.94S
NEWCASTLE      FAIR      64  36  34 SW5       29.96R

$$
WYZ014>020-022>026-101>103-301600-
CENTRAL WYOMING

CITY           SKY/WX    TMP DP  RH WIND       PRES   REMARKS
BIG PINEY      FAIR      50  42  74 VRB3      30.18S
PINEDALE       FAIR      46  39  76 CALM      30.19S
DUBOIS         PTSUNNY   54  32  43 NW8G17    30.12R
LANDER         FAIR      59  40  49 CALM      30.07R
RIVERTON       FAIR      61  40  45 NE10      30.06S
CASPER         CLOUDY    61  41  47 W18       30.02S
DOUGLAS          N/A    N/A N/A N/A MISG      30.00S

$$
WYZ021-027>030-104>119-301600-
SOUTHERN WYOMING

CITY           SKY/WX    TMP DP  RH WIND       PRES   REMARKS
EVANSTON       FAIR      51  41  68 S7        30.21R
KEMMERER         N/A     50  41  71 W10       30.21R
FORT BRIDGER   SUNNY     55  41  58 W14       30.23R
ROCK SPRINGS   FAIR      52  38  58 W9        30.18R
DIXON          FAIR      53  41  63 SE3       30.21S
RAWLINS        FAIR      54  39  57 W17       30.15R
SARATOGA       FAIR      54  37  54 W13G18    30.18S
LARAMIE        FAIR      55  40  56 N9        30.13S
CHEYENNE       FAIR      66  39  37 NW5       30.07S
TORRINGTON     FAIR      62  45  53 S3        29.98S
PINE BLUFFS    FAIR      64  50  59 SW6       30.04F

$$




USA.gov is the U.S. government's official web portal to all federal, state and local government web resources and services.